Voltar ao catálogo

OPS 4029

AtivoMilitarMEO
NORAD 12930·PAYLOAD·🇺🇸 United States

Lançado Oct 31, 1981 de Cape Canaveral Space Force Station

Loading…

Próximas Passagens (próximas 24 horas)

TLE

AtualizadoSource: Space-Track

Época: Sep 14, 2026, 05:50 UTC

1 12930U 81107A   26257.24344417 -.00000442  00000-0  00000-0 0  9994
2 12930   5.6461   2.4466 1042832  45.1067 154.4163  1.00349793  8765

Acompanhe OPS 4029 em tempo real com AllMySat

Download on the App Store